Wind_Speed
23 22 21 19 19 20 18 18 18 16 16 15 13 13 13 10 10 12 12 11 11 12 11 11 10 11 11 11 11 11 11 12 12 12 12 12 13 13 12 12 13 12
24 22 21 20 19 19 17 17 17 16 15 15 13 13 13 11 10 11 11 10 11 11 11 11 10 11 10 10 11 11 11 12 11 12 12 12 13 12 12 13 13 13
24 23 22 22 20 18 17 16 16 15 14 15 14 13 14 13 12 13 12 12 12 11 12 11 11 11 10 11 11 10 10 11 11 11 11 12 13 13 12 13 14 13
24 24 22 22 21 19 17 16 16 16 15 15 14 13 13 14 15 16 15 13 13 12 12 12 11 11 11 12 11 10 10 11 11 11 10 11 12 12 12 12 13 13
23 23 22 22 21 20 19 17 17 16 15 16 15 14 14 13 15 17 17 15 13 13 13 13 12 12 12 11 11 10 10 11 11 11 11 11 11 12 12 12 12 12
22 22 22 22 21 21 20 19 18 17 16 16 17 16 15 13 13 15 16 15 14 14 14 13 13 13 12 12 11 11 10 11 11 11 10 10 11 12 12 12 12 11
23 23 23 22 21 21 21 20 19 18 17 17 16 16 15 16 16 16 16 16 16 16 15 14 14 14 14 12 12 12 11 11 11 10 10 10 11 12 12 13 13 12
22 22 23 23 22 21 21 20 20 20 19 18 17 16 16 18 19 19 18 17 17 17 17 16 15 14 15 14 13 13 13 13 13 12 11 11 11 12 12 12 14 13
22 21 21 23 23 23 22 21 21 20 20 19 19 18 18 18 20 20 20 18 17 17 18 18 17 15 15 15 15 15 15 14 15 13 11 11 11 12 12 12 14 13
23 22 21 22 23 24 23 23 22 21 21 21 20 20 21 20 20 20 20 20 19 18 18 19 18 17 17 17 16 17 16 16 16 14 12 12 11 12 13 13 13 14
24 24 23 22 22 23 23 22 22 22 22 22 22 23 23 22 22 22 21 21 21 21 20 19 19 19 19 19 18 18 17 16 16 16 15 14 14 14 15 14 14 15
26 26 24 24 24 24 24 24 23 23 22 23 23 24 24 23 23 23 23 23 22 22 22 21 21 22 22 22 21 20 19 18 17 17 18 17 16 16 17 16 16 16
28 27 25 26 27 26 27 27 26 26 24 23 23 23 25 25 24 24 24 24 24 23 24 23 23 24 24 23 23 21 21 21 20 19 19 20 20 19 18 18 17 17
27 27 25 27 29 28 28 29 28 28 27 25 24 24 25 24 24 26 25 24 25 25 24 24 25 26 26 25 25 24 22 22 22 21 20 21 22 22 21 21 20 19
23 25 27 29 30 31 30 29 30 29 28 27 25 24 27 25 23 25 27 26 25 25 25 25 26 27 27 27 27 26 25 24 23 23 22 22 22 23 23 23 22 21
20 23 27 31 33 34 32 29 29 28 27 27 25 24 26 28 24 23 26 27 27 26 25 25 26 26 26 26 27 27 27 26 25 25 25 24 24 23 23 23 22 22
18 20 24 28 31 33 32 30 28 26 24 26 27 25 25 27 28 26 25 27 29 29 27 27 26 25 24 24 25 26 27 27 27 27 27 27 27 26 25 24 23 22
15 16 18 22 26 29 31 29 27 25 23 23 26 27 26 26 29 30 28 26 28 31 30 29 28 26 25 24 24 25 26 27 28 29 29 30 30 29 28 27 26 25
10 13 14 17 21 25 27 26 25 25 25 23 23 26 27 27 28 31 31 29 29 30 31 30 29 28 26 25 24 23 24 25 27 28 29 29 30 31 31 30 29 28
8 9 11 13 16 19 21 22 21 22 24 24 23 24 27 29 28 28 30 32 32 32 31 29 27 27 27 28 27 25 23 23 25 28 28 28 28 29 30 31 30 30
7 8 10 12 13 16 19 20 19 19 20 21 23 25 27 30 31 29 28 29 31 32 32 30 28 25 25 26 27 28 27 26 26 27 29 29 29 28 29 29 30 30
7 8 11 12 12 15 18 20 20 20 19 20 23 25 27 30 33 32 31 30 29 30 31 32 32 30 29 27 26 26 28 29 30 30 30 30 30 30 29 29 29 30
4 7 9 11 12 14 17 19 20 20 21 22 24 26 28 30 32 34 34 34 33 33 32 32 33 34 35 35 33 30 28 29 31 33 34 34 33 32 31 31 30 30
3 3 6 9 11 14 15 16 17 18 20 22 24 27 28 30 31 32 33 35 35 36 37 36 36 36 36 37 38 37 34 31 29 30 33 35 35 34 33 33 33 33
9 7 5 6 9 12 15 16 17 17 18 19 22 25 26 28 29 30 31 32 33 35 36 37 37 37 37 36 36 36 36 34 30 27 29 32 34 35 36 35 35 35
11 9 9 8 8 9 13 15 17 17 18 18 19 21 23 25 27 29 30 30 31 32 33 33 34 35 34 34 35 34 35 34 32 29 29 31 33 35 36 37 38 38
Wind_Direction
200 196 192 195 199 200 199 197 198 196 193 197 198 194 194 195 203 201 195 203 202 193 199 199 197 201 198 196 197 190 189 187 181 184 187 182 182 184 182 177 174 177
204 202 196 197 203 207 204 197 200 201 194 197 197 192 198 198 200 204 205 214 210 197 197 200 201 202 198 200 203 196 193 190 185 184 186 185 184 185 184 184 186 190
208 209 204 202 206 210 209 202 202 206 201 197 196 196 202 197 196 211 222 221 214 204 199 197 202 203 198 201 206 204 199 194 192 189 187 190 190 190 189 191 195 195
211 214 212 210 211 212 212 209 207 209 207 201 198 202 206 201 198 210 224 224 214 212 207 200 205 206 202 204 203 206 207 199 197 196 193 191 192 197 196 195 200 198
212 216 217 216 216 214 212 213 211 211 211 207 205 207 208 208 208 211 222 226 218 217 214 206 210 212 208 209 205 204 209 206 199 200 202 193 191 202 204 202 203 197
213 214 219 220 220 220 218 215 214 215 213 210 212 214 207 209 222 225 225 228 223 220 219 212 213 216 215 214 211 208 210 211 206 202 203 197 197 208 211 210 209 201
219 215 217 220 221 223 224 221 216 215 217 214 216 220 211 207 221 231 229 230 227 223 224 223 220 220 221 219 216 215 213 214 215 210 207 203 205 212 211 210 212 212
227 225 220 220 221 221 224 226 220 215 218 218 215 222 223 214 219 229 230 229 227 225 226 230 229 226 227 224 219 220 221 220 221 219 216 216 216 217 213 211 214 217
222 231 229 225 223 221 221 226 226 219 218 218 214 219 228 227 225 230 233 232 228 226 227 231 234 233 233 232 226 223 224 227 229 227 223 226 227 224 222 219 216 217
212 223 230 228 227 224 220 223 229 226 221 219 215 216 223 230 233 234 236 236 232 229 227 228 233 236 238 239 236 231 227 228 234 236 230 229 235 237 234 229 222 222
209 215 221 222 224 224 221 223 229 231 229 224 218 217 221 228 233 236 237 238 237 235 231 228 229 235 239 241 242 241 233 228 232 237 236 235 238 241 241 237 232 231
213 214 214 213 215 217 216 218 223 226 231 234 229 221 220 225 233 236 236 239 241 240 237 233 231 233 238 241 243 243 241 237 235 235 237 240 243 243 241 240 239 239
220 223 221 216 216 216 213 213 215 215 219 230 238 234 224 222 229 236 239 240 243 245 242 239 237 236 238 241 244 244 242 241 241 239 237 239 244 247 248 247 247 247
224 230 233 226 221 220 218 217 217 216 213 215 226 237 237 229 226 232 241 243 243 247 248 245 242 241 241 241 245 247 245 243 244 245 244 242 243 246 249 252 254 255
229 235 239 236 229 225 224 224 223 222 219 214 214 225 236 239 233 229 235 243 245 247 249 250 248 247 246 244 243 245 246 246 246 247 249 248 247 247 248 250 253 255
239 240 240 239 235 230 228 227 227 228 230 227 220 217 223 234 238 233 231 237 245 248 249 251 252 253 253 251 248 246 246 246 246 248 250 252 253 254 253 253 253 255
234 236 238 239 237 234 231 227 227 235 244 240 231 223 219 224 232 236 235 235 240 246 249 251 253 256 259 260 258 254 251 249 247 246 247 250 254 256 258 258 258 257
222 228 235 237 236 234 232 230 230 240 249 245 236 232 228 224 225 230 234 235 237 243 247 250 252 256 259 263 265 263 259 256 253 251 248 247 249 253 256 259 259 259
208 221 227 231 232 231 231 235 239 241 241 240 235 232 231 230 227 227 229 231 233 239 246 250 252 255 257 260 264 267 266 263 260 259 257 253 251 251 253 256 257 258
197 216 225 229 231 231 231 234 239 239 236 234 230 227 229 232 230 228 229 229 230 234 241 247 252 254 255 257 261 265 268 268 265 263 263 263 260 258 256 256 257 258
205 213 222 228 228 228 229 230 232 235 234 232 230 231 233 234 232 231 230 229 229 230 233 238 243 248 253 256 259 262 264 267 266 263 262 263 265 265 263 261 261 260
222 220 223 228 230 229 231 231 230 233 235 236 236 236 235 233 232 233 233 232 232 231 232 234 236 241 247 251 256 260 262 263 262 261 260 261 263 266 266 266 266 265
249 239 235 234 231 231 235 237 237 239 240 239 238 236 235 233 233 233 235 236 236 236 237 237 238 239 243 248 252 256 258 260 260 259 258 259 262 264 265 266 267 267
354 291 261 249 241 236 236 237 238 241 244 243 239 236 235 235 235 236 236 236 237 239 240 241 242 243 243 246 250 254 256 259 263 265 263 261 263 265 264 265 266 266
21 3 330 289 266 253 248 245 243 243 245 246 243 240 237 237 238 240 239 239 240 241 241 242 243 245 246 247 249 252 255 255 259 268 271 266 263 264 264 264 265 265
26 15 1 342 313 284 268 262 258 255 253 252 249 245 242 240 241 242 242 243 244 245 246 246 246 247 249 250 251 252 255 257 259 265 269 268 264 261 262 263 265 265
Height
1585 1587 1589 1591 1592 1593 1594 1595 1596 1597 1598 1599 1600 1601 1601 1602 1603 1604 1604 1604 1605 1605 1605 1605 1605 1606 1606 1606 1606 1606 1606 1606 1607 1607 1607 1607 1608 1608 1609 1609 1609 1610
1585 1587 1588 1590 1591 1593 1594 1595 1596 1596 1597 1598 1599 1601 1601 1602 1603 1603 1604 1605 1605 1605 1605 1606 1606 1606 1606 1606 1606 1606 1606 1607 1607 1607 1607 1607 1608 1608 1608 1609 1609 1609
1584 1586 1588 1589 1591 1592 1593 1594 1596 1596 1597 1598 1599 1600 1601 1602 1603 1603 1604 1605 1605 1605 1606 1606 1606 1606 1606 1606 1606 1606 1606 1607 1607 1607 1607 1607 1607 1608 1608 1608 1608 1609
1583 1585 1586 1588 1590 1591 1593 1594 1595 1596 1597 1598 1599 1600 1601 1602 1602 1603 1603 1604 1605 1605 1605 1606 1606 1606 1606 1606 1607 1607 1607 1607 1607 1607 1607 1607 1607 1607 1608 1608 1608 1608
1581 1583 1585 1587 1588 1590 1592 1593 1594 1595 1596 1597 1598 1599 1600 1600 1601 1602 1602 1603 1604 1604 1605 1605 1606 1606 1606 1606 1607 1607 1607 1607 1607 1607 1607 1607 1607 1607 1607 1608 1608 1608
1579 1581 1583 1585 1586 1588 1590 1591 1593 1594 1595 1596 1597 1598 1599 1599 1600 1601 1601 1602 1603 1603 1604 1605 1605 1605 1606 1606 1606 1607 1607 1607 1607 1607 1607 1606 1606 1607 1607 1607 1608 1608
1576 1578 1580 1583 1585 1586 1588 1589 1591 1592 1593 1595 1596 1597 1598 1598 1599 1599 1600 1601 1601 1602 1603 1603 1604 1605 1605 1606 1606 1606 1606 1607 1607 1606 1606 1606 1606 1606 1606 1606 1607 1607
1575 1577 1579 1581 1582 1584 1586 1587 1588 1590 1591 1593 1594 1595 1596 1597 1597 1597 1598 1599 1600 1601 1602 1602 1603 1604 1604 1605 1605 1606 1606 1606 1606 1606 1606 1606 1605 1605 1605 1606 1606 1606
1573 1575 1577 1579 1581 1582 1583 1585 1586 1587 1589 1590 1591 1593 1594 1595 1596 1596 1597 1598 1598 1600 1601 1601 1602 1602 1603 1603 1604 1605 1605 1605 1605 1605 1605 1605 1605 1605 1605 1605 1605 1605
1571 1573 1575 1577 1579 1581 1582 1583 1584 1585 1586 1587 1589 1590 1591 1593 1594 1595 1596 1596 1597 1598 1599 1600 1600 1601 1602 1602 1602 1603 1603 1604 1604 1604 1604 1604 1604 1605 1605 1605 1605 1605
1570 1572 1573 1575 1577 1579 1580 1582 1582 1583 1584 1585 1586 1588 1589 1590 1592 1593 1594 1595 1595 1596 1597 1598 1599 1599 1600 1600 1601 1601 1602 1602 1603 1603 1603 1603 1604 1604 1604 1604 1604 1604
1567 1569 1570 1572 1574 1575 1577 1579 1579 1581 1582 1583 1584 1585 1587 1588 1589 1590 1592 1593 1594 1595 1595 1596 1597 1598 1598 1599 1600 1600 1600 1601 1601 1602 1602 1602 1602 1602 1603 1603 1603 1603
1564 1567 1569 1570 1571 1572 1573 1574 1575 1576 1578 1579 1581 1583 1584 1586 1587 1588 1589 1591 1592 1593 1594 1595 1595 1596 1597 1597 1598 1599 1599 1599 1600 1600 1601 1600 1601 1601 1601 1602 1602 1602
1561 1566 1569 1569 1569 1569 1571 1572 1573 1573 1574 1574 1576 1578 1581 1583 1584 1586 1587 1588 1590 1591 1592 1593 1594 1594 1595 1595 1596 1597 1598 1598 1598 1599 1599 1599 1599 1600 1600 1600 1601 1601
1558 1562 1565 1567 1567 1567 1568 1570 1571 1572 1573 1573 1573 1574 1577 1579 1581 1583 1584 1586 1587 1588 1589 1590 1591 1592 1592 1593 1594 1595 1595 1596 1596 1597 1597 1597 1597 1598 1598 1599 1599 1599
1555 1558 1562 1563 1564 1564 1566 1567 1569 1570 1572 1573 1572 1573 1574 1576 1578 1580 1581 1582 1584 1585 1586 1587 1587 1588 1589 1590 1591 1592 1593 1594 1594 1594 1594 1595 1595 1595 1596 1596 1596 1597
1556 1558 1560 1560 1561 1562 1563 1564 1566 1568 1569 1571 1571 1571 1573 1574 1576 1577 1578 1579 1580 1581 1583 1583 1584 1585 1586 1588 1589 1589 1590 1591 1591 1592 1592 1592 1592 1593 1593 1593 1594 1595
1556 1557 1557 1558 1558 1559 1561 1562 1564 1565 1566 1567 1568 1569 1571 1571 1573 1574 1576 1577 1578 1578 1579 1580 1581 1583 1584 1585 1586 1587 1588 1588 1589 1590 1590 1590 1590 1590 1591 1591 1592 1592
1554 1554 1555 1556 1556 1557 1558 1560 1561 1562 1562 1562 1563 1565 1568 1569 1570 1572 1573 1575 1576 1576 1577 1578 1579 1580 1581 1583 1583 1584 1585 1586 1586 1587 1588 1588 1589 1589 1589 1589 1590 1590
1552 1552 1552 1553 1553 1554 1555 1556 1558 1558 1558 1559 1559 1561 1564 1566 1568 1570 1571 1573 1574 1575 1575 1576 1577 1578 1579 1580 1581 1581 1582 1583 1583 1584 1585 1586 1586 1587 1587 1587 1588 1588
1550 1550 1550 1549 1550 1551 1552 1553 1554 1554 1555 1556 1556 1558 1560 1562 1565 1568 1569 1571 1572 1573 1574 1574 1575 1576 1577 1578 1578 1579 1579 1580 1580 1581 1582 1582 1583 1584 1585 1585 1586 1586
1548 1548 1547 1547 1548 1549 1549 1550 1550 1550 1551 1553 1554 1555 1557 1559 1562 1565 1567 1568 1570 1571 1571 1572 1573 1575 1575 1576 1576 1577 1577 1577 1577 1578 1578 1579 1580 1581 1582 1583 1583 1584
1546 1546 1546 1546 1546 1547 1547 1547 1548 1548 1549 1550 1551 1553 1554 1556 1558 1560 1562 1564 1565 1567 1567 1568 1570 1572 1573 1573 1574 1575 1575 1575 1575 1576 1576 1577 1577 1578 1579 1580 1581 1581
1546 1545 1545 1545 1545 1546 1546 1546 1546 1547 1547 1548 1549 1550 1551 1553 1555 1556 1558 1560 1561 1562 1563 1564 1565 1567 1569 1570 1571 1572 1572 1573 1574 1574 1575 1575 1576 1577 1577 1578 1578 1579
1545 1545 1545 1545 1545 1545 1546 1546 1546 1546 1546 1547 1547 1548 1549 1550 1551 1553 1555 1556 1557 1558 1559 1560 1561 1563 1565 1566 1566 1567 1567 1569 1570 1570 1571 1573 1574 1574 1575 1575 1575 1576
1545 1545 1544 1544 1544 1545 1545 1545 1545 1545 1545 1546 1546 1546 1547 1548 1549 1550 1552 1553 1554 1555 1556 1557 1559 1560 1561 1561 1561 1562 1563 1565 1566 1568 1568 1569 1569 1570 1570 1570 1571 1571